Regional Weather Roundup
Issued by NWS

Home | Current Version | Previous Version | Graphics & Text | Print | Product List | Glossary On
Versions: 1 2 3 4 5 6 7 8 9 10 11 12 13 14 15 16 17 18 19 20 21 22 23 24 25 26 27 28 29 30 31 32 33 34 35 36 37 38 39 40 41 42 43 44 45 46 47 48 49 50
000
ASUS43 KFSD 191810
RWRSD

WEATHER ROUNDUP FOR SOUTH DAKOTA
NATIONAL WEATHER SERVICE SIOUX FALLS SD
100 PM CDT SUN APR 19 2015

NOTE: "FAIR" INDICATES FEW OR NO CLOUDS BELOW 12,000 FEET WITH NO
SIGNIFICANT WEATHER AND/OR OBSTRUCTIONS TO VISIBILITY.


SDZ001>005-009-010-012>017-191900-
NORTHWEST AND NORTH CENTRAL SOUTH DAKOTA

CITY           SKY/WX    TMP DP  RH WIND       PRES   REMARKS
BUFFALO          N/A     47  26  44 NW41G53   29.94S
FAITH            N/A     49  28  44 NW30G43   29.96F
MOBRIDGE       LGT RAIN  49  33  54 NW28G36   29.87F
$$

SDZ012>016-024>037-041>051-057-063-072>074-191900-
SOUTHWEST AND SOUTH CENTRAL SOUTH DAKOTA

CITY           SKY/WX    TMP DP  RH WIND       PRES   REMARKS
RAPID CTY ARPT MOSUNNY   50  24  36 NW38G49   30.01F
PIERRE         PTSUNNY   51  32  48 NW26G43   29.90F
CUSTER         MOSUNNY   38  18  44 NW13G26   30.02F
ELLSWORTH AFB  PTSUNNY   48  24  38 NW37G48   29.99F
PHILIP         PTSUNNY   50  26  39 NW33G43   29.97F
PINE RIDGE     MOSUNNY   50  22  33 N20G30    30.03F
SPEARFISH      MIX PCPN  45  23  42 NW25G37   30.06F
WINNER         CLOUDY    52  26  36 NW30G38   29.92F
$$

SDZ004>011-016>023-039-040-191900-
NORTHEAST SOUTH DAKOTA

CITY           SKY/WX    TMP DP  RH WIND       PRES   REMARKS
ABERDEEN       MOSUNNY   56  32  40 NW26G36   29.82F
WATERTOWN      CLOUDY    48  39  71 NW23G32   29.77S
BROOKINGS      CLOUDY    48  39  71 NW21G29   29.79R
SISSETON         N/A     52  40  63 N29G35    29.73F
$$

SDZ017-020-022-023-036>040-048>070-191900-
SOUTHEAST SOUTH DAKOTA

CITY           SKY/WX    TMP DP  RH WIND       PRES   REMARKS
SIOUX FALLS    CLOUDY    50  41  71 NW22G33   29.78S
HURON          PTSUNNY   55  33  43 NW28G37   29.83F
CHAMBERLAIN    PTSUNNY   50  31  49 NW24G33   29.90S
MITCHELL       CLOUDY    55  33  43 N25G37    29.84F
YANKTON        CLOUDY    52  36  54 NW30G37   29.82S
$$

ABBREVIATIONS USED IN REMARKS
   TC - TEMPERATURE IN CELSIUS
  WCI - WIND CHILL INDEX
   HX - HEAT INDEX
  VSB - VISIBILITY



USA.gov is the U.S. government's official web portal to all federal, state and local government web resources and services.